Location: ???? ??
(36.0534°N, 43.5630°E)
Time: 22:07:20
(UTC+00:00)

Ariane Rocket - Pass Details

Date: 18 September 2019
Orbit: 761 x 769 km, 98.8° (Epoch: 15 October)

Event Time Altitude Azimuth Distance (km) Brightness Sun altitude
Rises 16:16:01 0° 169° (S) 3,207 6.0 -14.2°
Reaches altitude 10° 16:18:19 10° 171° (S) 2,286 5.2 -14.6°
Maximum altitude 16:23:21 76° 257° (WSW) 789 3.1 -15.6°
Drops below altitude 10° 16:28:25 10° 343° (NNW) 2,305 5.9 -16.6°
Sets 16:30:45 0° 345° (NNW) 3,237 6.7 -17.1°
